Location: Bremen
(53.0793°N, 8.8017°E)
Time: 20:05:13
(UTC+02:00)

Envisat - Pass Details

Date: 04 March 2024
Orbit: 762 x 764 km, 98.3° (Epoch: 13 April)

Event Time Altitude Azimuth Distance (km) Brightness Sun altitude
Rises 06:05:19 0° 5° (N) 3,244 6.4 -9.7°
Reaches altitude 10° 06:08:36 10° 343° (NNW) 2,313 5.3 -9.2°
Maximum altitude 06:11:21 15° 310° (NW) 1,990 4.7 -8.8°
Enters shadow 06:14:04 10° 277° (W) 2,301 4.8 -8.3°
